Menominee, MI

6:07 AM CDT on March 28, 2017 (GMT -0500)
Menominee-Marinette Twin County

Weather History for KMNM - March, 2013

Change the Weather History Date:

Tuesday, March 19, 2013

  Actual Average Record
Temperature  
Mean Temperature 24 °F -  
Max Temperature 32 °F 42 °F 68 °F (2012)
Min Temperature 17 °F 23 °F 4 °F (1965)
Degree Days  
Heating Degree Days 42    
Moisture  
Dew Point 11 °F    
Average Humidity 63    
Maximum Humidity 93    
Minimum Humidity 40    
Precipitation  
Precipitation 0.01 in - - ()
Sea Level Pressure  
Sea Level Pressure 29.67 in    
Wind  
Wind Speed 11 mph (WNW)    
Max Wind Speed 17 mph    
Max Gust Speed 30 mph    
Visibility 7 miles    
Events      
Averages and records for this station are not official NWS values.
T = Trace of Precipitation, MM = Missing Value Source: NWS Daily Summary

Daily Weather History Graph

Daily Weather History Graph

Search for Another Location

Airport or City:

Trip Planner

Search our weather history database for the weather conditions in past years. The results will help you decide how hot, cold, wet, or windy it might be!

Date:

Astronomy

Mar. 19, 2013 Rise Set
Actual Time 6:55 AM CDT 7:02 PM CDT
Civil Twilight 6:25 AM CDT 7:31 PM CDT
Nautical Twilight 5:51 AM CDT 8:05 PM CDT
Astronomical Twilight 5:16 AM CDT 8:41 PM CDT
Moon 11:30 AM CDT (3/19) 2:03 AM CDT (3/19)
Length of Visible Light 13h 05m
Length of Day
12h 07m
Waxing Crescent, 50% of the Moon is Illuminated
Mar 19
Waxing Crescent
Mar 19
First Quarter
Mar 27
Full
Apr 2
Last Quarter
Apr 10
New

Hourly Weather History & Observations

Time (CDT) Temp. Windchill Dew Point Humidity Pressure Visibility Wind Dir Wind Speed Gust Speed Precip Events Conditions
12:15 AM 24.8 °F 14.6 °F 19.4 °F 80% 29.49 in 6.0 mi West 10.4 mph 18.4 mph N/A   Overcast
12:35 AM 23.0 °F 9.2 °F 19.4 °F 86% 29.49 in 3.0 mi West 17.3 mph 23.0 mph N/A   Overcast
12:55 AM 21.2 °F 9.5 °F 15.8 °F 80% 29.49 in 3.0 mi West 11.5 mph 23.0 mph N/A   Mostly Cloudy
1:15 AM 19.4 °F 8.6 °F 15.8 °F 86% 29.49 in 1.8 mi West 9.2 mph 23.0 mph N/A   Overcast
1:55 AM 19.4 °F 9.5 °F 17.6 °F 93% 29.50 in 3.0 mi West 8.1 mph 16.1 mph N/A   Overcast
2:15 AM 19.4 °F 9.5 °F 15.8 °F 86% 29.51 in 2.0 mi West 8.1 mph 17.3 mph N/A   Overcast
2:55 AM 17.6 °F 5.0 °F 14.0 °F 86% 29.51 in 2.5 mi West 11.5 mph 18.4 mph N/A   Overcast
3:15 AM 17.6 °F 8.2 °F 15.8 °F 93% 29.51 in 8.0 mi West 6.9 mph - N/A   Overcast
3:35 AM 17.6 °F 6.4 °F 15.8 °F 93% 29.51 in 6.0 mi West 9.2 mph - N/A   Overcast
3:55 AM 17.6 °F 6.4 °F 14.0 °F 86% 29.50 in 6.0 mi West 9.2 mph - N/A   Overcast
4:15 AM 17.6 °F 8.2 °F 14.0 °F 86% 29.51 in 5.0 mi West 6.9 mph 17.3 mph N/A   Overcast
4:35 AM 17.6 °F 6.4 °F 14.0 °F 86% 29.51 in 6.0 mi West 9.2 mph 16.1 mph N/A   Overcast
4:55 AM 17.6 °F 6.4 °F 14.0 °F 86% 29.51 in 9.0 mi West 9.2 mph 17.3 mph N/A   Overcast
5:15 AM 17.6 °F 7.3 °F 12.2 °F 79% 29.52 in 5.0 mi West 8.1 mph 17.3 mph N/A   Overcast
5:35 AM 17.6 °F 5.7 °F 14.0 °F 86% 29.52 in 4.0 mi West 10.4 mph 16.1 mph N/A   Overcast
5:55 AM 17.6 °F 5.0 °F 12.2 °F 79% 29.53 in 3.0 mi West 11.5 mph 18.4 mph N/A   Overcast
6:15 AM 17.6 °F 5.0 °F 12.2 °F 79% 29.53 in 3.0 mi West 11.5 mph 17.3 mph N/A   Overcast
6:35 AM 17.6 °F 6.4 °F 12.2 °F 79% 29.54 in 3.0 mi West 9.2 mph 17.3 mph N/A   Overcast
6:55 AM 17.6 °F 5.7 °F 14.0 °F 86% 29.55 in 1.5 mi West 10.4 mph 17.3 mph N/A   Overcast
7:15 AM 17.6 °F 5.0 °F 12.2 °F 79% 29.56 in 1.2 mi West 11.5 mph 18.4 mph N/A   Overcast
7:35 AM 17.6 °F 5.0 °F 14.0 °F 86% 29.56 in 1.8 mi West 11.5 mph 20.7 mph N/A   Overcast
7:55 AM 17.6 °F 6.4 °F 12.2 °F 79% 29.57 in 2.0 mi West 9.2 mph 17.3 mph N/A   Overcast
8:15 AM 17.6 °F 3.7 °F 12.2 °F 79% 29.57 in 1.5 mi WNW 13.8 mph 19.6 mph N/A   Overcast
8:35 AM 17.6 °F 3.7 °F 14.0 °F 86% 29.58 in 2.5 mi WNW 13.8 mph 19.6 mph N/A   Overcast
8:55 AM 17.6 °F 4.3 °F 12.2 °F 79% 29.59 in 7.0 mi West 12.7 mph 23.0 mph N/A   Overcast
9:15 AM 17.6 °F 3.7 °F 12.2 °F 79% 29.59 in 10.0 mi WNW 13.8 mph 20.7 mph N/A   Overcast
9:35 AM 19.4 °F 6.6 °F 10.4 °F 68% 29.60 in 10.0 mi WNW 12.7 mph 19.6 mph N/A   Overcast
9:55 AM 19.4 °F 6.6 °F 12.2 °F 74% 29.60 in 10.0 mi WNW 12.7 mph 21.9 mph N/A   Overcast
10:15 AM 21.2 °F 7.8 °F 10.4 °F 63% 29.61 in 10.0 mi WNW 15.0 mph 27.6 mph N/A   Overcast
10:35 AM 21.2 °F 7.3 °F 10.4 °F 63% 29.62 in 10.0 mi WNW 16.1 mph 29.9 mph N/A   Mostly Cloudy
10:55 AM 21.2 °F 10.9 °F 10.4 °F 63% 29.63 in 10.0 mi WNW 9.2 mph 27.6 mph N/A   Mostly Cloudy
11:15 AM 23.0 °F 11.1 °F 10.4 °F 59% 29.63 in 10.0 mi NW 12.7 mph 26.5 mph N/A   Overcast
11:35 AM 23.0 °F 11.7 °F 12.2 °F 63% 29.64 in 10.0 mi WNW 11.5 mph 21.9 mph N/A   Overcast
11:55 AM 24.8 °F 12.9 °F 12.2 °F 59% 29.65 in 4.0 mi West 13.8 mph 25.3 mph N/A   Mostly Cloudy
12:15 PM 24.8 °F 11.5 °F 10.4 °F 54% 29.65 in 9.0 mi West 17.3 mph 26.5 mph N/A   Overcast
12:35 PM 24.8 °F 12.4 °F 10.4 °F 54% 29.66 in 9.0 mi WNW 15.0 mph 26.5 mph N/A   Overcast
12:55 PM 24.8 °F 11.5 °F 12.2 °F 59% 29.66 in 8.0 mi West 17.3 mph 24.2 mph N/A   Overcast
1:35 PM 26.6 °F 13.8 °F 10.4 °F 51% 29.67 in 8.0 mi WNW 17.3 mph 29.9 mph N/A   Overcast
1:55 PM 26.6 °F 15.2 °F 12.2 °F 55% 29.68 in 9.0 mi WNW 13.8 mph 24.2 mph N/A   Overcast
2:15 PM 28.4 °F 17.0 °F 12.2 °F 51% 29.68 in 9.0 mi WNW 15.0 mph 25.3 mph N/A   Overcast
2:35 PM 28.4 °F 18.5 °F 12.2 °F 51% 29.69 in 8.0 mi WNW 11.5 mph 24.2 mph N/A   Mostly Cloudy
2:55 PM 28.4 °F 18.5 °F 12.2 °F 51% 29.70 in 10.0 mi NW 11.5 mph 24.2 mph N/A   Partly Cloudy
3:15 PM 30.2 °F 18.5 °F 12.2 °F 47% 29.71 in 8.0 mi West 17.3 mph 24.2 mph N/A   Partly Cloudy
3:35 PM 30.2 °F 19.3 °F 12.2 °F 47% 29.72 in 8.0 mi WNW 15.0 mph 28.8 mph N/A   Scattered Clouds
3:55 PM 30.2 °F 18.9 °F 14.0 °F 51% 29.73 in 10.0 mi NW 16.1 mph 26.5 mph N/A   Mostly Cloudy
4:15 PM 30.2 °F 21.9 °F 15.8 °F 55% 29.74 in 10.0 mi WNW 9.2 mph 25.3 mph N/A   Mostly Cloudy
4:35 PM 30.2 °F 20.2 °F 12.2 °F 47% 29.75 in 8.0 mi NW 12.7 mph 26.5 mph N/A   Overcast
4:55 PM 30.2 °F 19.3 °F 12.2 °F 47% 29.76 in 10.0 mi NW 15.0 mph 23.0 mph N/A   Overcast
5:15 PM 30.2 °F 19.8 °F 10.4 °F 44% 29.77 in 10.0 mi NW 13.8 mph 25.3 mph N/A   Overcast
5:35 PM 30.2 °F 21.3 °F 10.4 °F 44% 29.77 in 10.0 mi WNW 10.4 mph 24.2 mph N/A   Overcast
5:55 PM 30.2 °F 21.3 °F 10.4 °F 44% 29.79 in 10.0 mi WNW 10.4 mph 18.4 mph N/A   Mostly Cloudy
6:15 PM 30.2 °F 21.3 °F 8.6 °F 40% 29.80 in 8.0 mi WNW 10.4 mph 23.0 mph N/A   Mostly Cloudy
6:35 PM 28.4 °F 21.2 °F 8.6 °F 43% 29.81 in 10.0 mi NW 6.9 mph 21.9 mph N/A   Clear
6:55 PM 28.4 °F 21.2 °F 8.6 °F 43% 29.82 in 10.0 mi WNW 6.9 mph 16.1 mph N/A   Clear
7:15 PM 28.4 °F 19.7 °F 8.6 °F 43% 29.82 in 10.0 mi NW 9.2 mph - N/A   Partly Cloudy
7:35 PM 28.4 °F 20.4 °F 8.6 °F 43% 29.83 in 10.0 mi NW 8.1 mph 17.3 mph N/A   Partly Cloudy
7:55 PM 28.4 °F 21.2 °F 8.6 °F 43% 29.84 in 10.0 mi NW 6.9 mph - N/A   Clear
8:35 PM 26.6 °F 21.2 °F 6.8 °F 43% 29.86 in 10.0 mi NW 4.6 mph - N/A   Clear
8:55 PM 26.6 °F 20.0 °F 6.8 °F 43% 29.86 in 10.0 mi NW 5.8 mph - N/A   Clear
9:15 PM 24.8 °F 16.1 °F 6.8 °F 46% 29.87 in 10.0 mi NNW 8.1 mph - N/A   Clear
9:35 PM 24.8 °F 15.3 °F 5.0 °F 43% 29.87 in 10.0 mi NW 9.2 mph - N/A   Clear
9:55 PM 24.8 °F 16.1 °F 5.0 °F 43% 29.88 in 10.0 mi NW 8.1 mph 16.1 mph N/A   Clear
10:15 PM 24.8 °F 16.9 °F 5.0 °F 43% 29.88 in 10.0 mi NW 6.9 mph - N/A   Clear
10:35 PM 24.8 °F 16.9 °F 5.0 °F 43% 29.88 in 10.0 mi NW 6.9 mph - N/A   Clear
10:55 PM 23.0 °F 13.1 °F 3.2 °F 43% 29.88 in 10.0 mi NW 9.2 mph - N/A   Clear
11:15 PM 23.0 °F 14.7 °F 3.2 °F 43% 29.88 in 10.0 mi NW 6.9 mph - N/A   Clear
11:35 PM 21.2 °F 13.6 °F 3.2 °F 46% 29.88 in 10.0 mi WNW 5.8 mph 18.4 mph N/A   Clear
11:55 PM 21.2 °F 11.7 °F 3.2 °F 46% 29.88 in 10.0 mi WNW 8.1 mph - N/A   Clear